Regional Weather Roundup
Issued by NWS

Home | Current Version | Previous Version | Text Only | Print | Product List | Glossary On
Versions: 1 2 3 4 5 6 7 8 9 10 11 12 13 14 15 16 17 18 19 20 21 22 23 24 25 26 27 28 29 30 31 32 33 34 35 36 37 38 39 40 41 42 43 44 45 46 47 48 49 50
000
ASUS43 KTOP 121908
RWRKS

WEATHER ROUNDUP FOR KANSAS
NATIONAL WEATHER SERVICE GOODLAND KS
200 PM CDT SAT JUL 12 2014

NOTE:  "FAIR" INDICATES FEW OR NO CLOUDS BELOW 12,000 FEET WITH NO
SIGNIFICANT WEATHER AND/OR OBSTRUCTIONS TO VISIBILITY.

KSZ001>006-013>018-027>032-041>047-122000-
NORTHWEST KANSAS

CITY           SKY/WX    TMP DP  RH WIND       PRES   REMARKS
GOODLAND       SUNNY     84  66  54 N10G23    30.13S
HAYS           SUNNY     93  59  31 S20       30.00F
HILL CITY      SUNNY     96  61  31 SW6G17    29.99F HX  96
RUSSELL        SUNNY     93  67  42 S21       29.99S HX  96
$$

KSZ061>065-074>080-084>089-122000-
SOUTHWEST KANSAS

CITY           SKY/WX    TMP DP  RH WIND       PRES   REMARKS
DODGE CITY     SUNNY     91  61  36 S20G29    30.05F
ELKHART          N/A     92  61  35 S14         N/A
GARDEN CITY    SUNNY     92  63  38 S20       30.04F
GREAT BEND     SUNNY     91  66  43 S20G25    30.00F
LIBERAL        SUNNY     93  61  33 S17G28    30.09F
PRATT          SUNNY     90  63  40 SW20G29   30.07S
$$

KSZ066>073-081>083-090>101-122000-
SOUTHEAST KANSAS

CITY           SKY/WX    TMP DP  RH WIND       PRES   REMARKS
CHANUTE        MOSUNNY   92  67  43 SW17      30.07F HX  95
COFFEYVILLE    MOSUNNY   92  68  45 SW15G22   30.07F HAZE    HX  96
HUTCHINSON     SUNNY     92  66  42 SW18G26   30.03F
MEDICINE LODGE   N/A     92  66  42 S16G25    30.04F
NEWTON         SUNNY     91  64  40 SW22G30   30.07F
PARSONS        MOSUNNY   92  68  45 SW14G20   30.08F HX  96
WICHITA INTL   MOSUNNY   91  66  43 SW20G25   30.04F
WICHITA JABRA  SUNNY     90  67  46 SW23G31   30.05F
WINFIELD       SUNNY     92  68  45 SW23      30.07F HX  96
$$

KSZ007>012-019>026-033>040-048>060-102>105-122000-
NORTHEAST KANSAS

CITY           SKY/WX    TMP DP  RH WIND       PRES   REMARKS
CONCORDIA      MOSUNNY   93  65  39 SW13      29.97F HX  95
EMPORIA        SUNNY     92  67  43 SW17G25   30.04F HX  95
LAWRENCE       MOSUNNY   92  70  48 SW10      30.01F HX  97
MANHATTAN      SUNNY     98  66  34 SW15      29.97F HX 101
MARYSVILLE     SUNNY     95  70  43 SW12G17   29.97F HX 101
OLATHE IND     MOSUNNY   92  71  50 S13       30.04F HX  98
OLATHE EXE     MOSUNNY   89  71  55 SW10G18   30.04F HX  95
SALINA         MOSUNNY   97  66  36 SW16G25   29.99F HX 100
TOPEKA BILLARD MOSUNNY   95  69  42 SW13G20   30.00F HX 100
TOPEKA FORBES  SUNNY     95  66  38 SW17      30.01F HX  98
$$



USA.gov is the U.S. government's official web portal to all federal, state and local government web resources and services.